Location: *
(47.8307°S, 178.3954°E)
Time: 22:58:42
(UTC+00:00)

Cosmos 1140 Rocket - Pass Details

Date: 12 August 2024
Orbit: 741 x 765 km, 74.1° (Epoch: 19 September)

Event Time Altitude Azimuth Distance (km) Brightness Sun altitude
Rises 17:46:59 0° 201° (SSW) 3,257 6.5 -14.9°
Reaches altitude 10° 17:49:25 10° 196° (SSW) 2,321 5.8 -14.5°
Maximum altitude 17:54:38 59° 116° (ESE) 878 4.1 -13.6°
Drops below altitude 10° 17:59:44 10° 36° (NE) 2,278 6.6 -12.7°
Sets 18:02:07 0° 32° (NNE) 3,191 7.3 -12.3°
